Weather History for Midland Airpark, TX

Change the Weather History Date:

Saturday, November 10, 2012

  Actual Average (KMAF) Record (KMAF)
Temperature  
Mean Temperature 72 °F 55 °F  
Max Temperature 82 °F 69 °F 85 °F (1964)
Min Temperature 61 °F 42 °F 20 °F (1950)
Degree Days  
Heating Degree Days 0 10  
Month to date heating degree days 84  
Since 1 July heating degree days 193  
Cooling Degree Days 6    
Growing Degree Days 22 (Base 50)    
Moisture  
Dew Point 54 °F    
Average Humidity 56    
Maximum Humidity 80    
Minimum Humidity 30    
Precipitation  
Precipitation 0.00 in 0.03 in 0.87 in (1930)
Month to date precipitation 0.26  
Year to date precipitation 13.57  
Snow  
Snow 0.00 in - - ()
Month to date snowfall  
Since 1 July snowfall  
Since 1 September snowfall  
Snow Depth -    
Sea Level Pressure  
Sea Level Pressure 29.82 in    
Wind  
Wind Speed 16 mph (South)    
Max Wind Speed 26 mph    
Max Gust Speed 34 mph    
Visibility 10 miles    
Events Thunderstorm    
T = Trace of Precipitation, MM = Missing Value Source: NWS Daily Summary

Daily Weather History Graph

Daily Weather History Graph

Search for Another Location

Airport:

Trip Planner

Search our weather history database for the weather conditions in past years. The results will help you decide how hot, cold, wet, or windy it might be!

Date:

Astronomy

Nov. 10, 2012 Rise Set
Actual Time 7:13 AM CST 5:51 PM CST
Civil Twilight 6:47 AM CST 6:16 PM CST
Nautical Twilight 6:18 AM CST 6:46 PM CST
Astronomical Twilight 5:49 AM CST 7:15 PM CST
Moon 3:32 AM CST (11/10) 3:29 PM CST (11/10)
Length of Visible Light 11h 29m
Length of Day
10h 37m
Waning Crescent, 14% of the Moon is Illuminated
Nov 10
Waning Crescent
Nov 13
New
Nov 20
First Quarter
Nov 28
Full
Dec 6
Last Quarter

Hourly Weather History & Observations

Time (CST) Temp. Dew Point Humidity Pressure Visibility Wind Dir Wind Speed Gust Speed Precip Events Conditions
12:15 AM 67.6 °F 53.8 °F 61% 29.90 in 10.0 mi South 13.8 mph 21.9 mph N/A   Clear
12:35 AM 67.8 °F 52.9 °F 59% 29.89 in 10.0 mi South 15.0 mph 20.7 mph N/A   Clear
12:55 AM 68.2 °F 52.3 °F 57% 29.89 in 10.0 mi South 16.1 mph 23.0 mph N/A   Clear
1:15 AM 68.4 °F 51.8 °F 55% 29.89 in 10.0 mi South 16.1 mph - N/A   Clear
1:35 AM 68.7 °F 52.0 °F 55% 29.89 in 10.0 mi South 17.3 mph 24.2 mph N/A   Clear
1:55 AM 68.4 °F 52.2 °F 56% 29.88 in 10.0 mi South 16.1 mph 21.9 mph N/A   Clear
2:15 AM 68.0 °F 52.2 °F 57% 29.88 in 10.0 mi South 12.7 mph 21.9 mph N/A   Clear
2:35 AM 68.0 °F 52.2 °F 57% 29.88 in 10.0 mi South 15.0 mph - N/A   Clear
2:55 AM 68.0 °F 52.3 °F 57% 29.88 in 10.0 mi South 15.0 mph 19.6 mph N/A   Clear
3:15 AM 68.0 °F 52.3 °F 57% 29.88 in 10.0 mi South 15.0 mph 20.7 mph N/A   Clear
3:35 AM 67.5 °F 52.5 °F 59% 29.88 in 10.0 mi South 13.8 mph - N/A   Clear
3:55 AM 66.6 °F 52.7 °F 61% 29.87 in 10.0 mi South 12.7 mph - N/A   Clear
4:15 AM 65.8 °F 52.7 °F 62% 29.87 in 10.0 mi South 13.8 mph 18.4 mph N/A   Clear
4:35 AM 65.3 °F 52.7 °F 64% 29.87 in 10.0 mi South 13.8 mph 19.6 mph N/A   Clear
4:55 AM 64.8 °F 53.1 °F 66% 29.87 in 10.0 mi South 16.1 mph 20.7 mph N/A   Clear
5:15 AM 64.4 °F 53.2 °F 67% 29.87 in 10.0 mi South 16.1 mph 20.7 mph N/A   Clear
6:35 AM 62.4 °F 54.1 °F 74% 29.87 in 10.0 mi South 13.8 mph - N/A   Clear
6:55 AM 62.1 °F 54.5 °F 76% 29.88 in 10.0 mi South 13.8 mph 19.6 mph N/A   Clear
7:15 AM 61.7 °F 54.7 °F 78% 29.88 in 10.0 mi South 12.7 mph 17.3 mph N/A   Clear
7:35 AM 61.5 °F 55.0 °F 79% 29.88 in 10.0 mi South 15.0 mph 19.6 mph N/A   Clear
7:55 AM 61.7 °F 55.6 °F 80% 29.89 in 10.0 mi South 13.8 mph 18.4 mph N/A   Clear
8:15 AM 62.2 °F 56.1 °F 80% 29.89 in 10.0 mi South 17.3 mph - N/A   Clear
8:35 AM 63.1 °F 56.3 °F 78% 29.89 in 10.0 mi South 17.3 mph - N/A   Clear
8:55 AM 64.2 °F 56.7 °F 76% 29.90 in 10.0 mi South 16.1 mph 24.2 mph N/A   Clear
9:35 AM 66.7 °F 56.8 °F 70% 29.89 in 10.0 mi South 18.4 mph 25.3 mph N/A   Clear
9:55 AM 68.4 °F 56.8 °F 67% 29.89 in 10.0 mi South 17.3 mph 24.2 mph N/A   Clear
10:15 AM 69.6 °F 56.7 °F 63% 29.88 in 10.0 mi South 19.6 mph 23.0 mph N/A   Clear
10:35 AM 70.9 °F 56.5 °F 60% 29.88 in 10.0 mi South 18.4 mph 25.3 mph N/A   Clear
10:55 AM 72.1 °F 56.3 °F 57% 29.88 in 10.0 mi South 19.6 mph 24.2 mph N/A   Clear
11:15 AM 73.2 °F 55.8 °F 54% 29.87 in 10.0 mi South 20.7 mph 27.6 mph N/A   Clear
11:35 AM 73.6 °F 55.8 °F 54% 29.85 in 10.0 mi South 18.4 mph 27.6 mph N/A   Clear
11:55 AM 74.7 °F 55.0 °F 50% 29.85 in 10.0 mi South 21.9 mph 28.8 mph N/A   Clear
12:15 PM 75.7 °F 55.2 °F 49% 29.83 in 10.0 mi South 24.2 mph 31.1 mph N/A   Clear
12:35 PM 76.5 °F 54.5 °F 46% 29.82 in 10.0 mi South 19.6 mph 26.5 mph N/A   Clear
12:55 PM 77.5 °F 54.0 °F 44% 29.80 in 10.0 mi South 19.6 mph 26.5 mph N/A   Clear
1:15 PM 78.3 °F 53.4 °F 42% 29.78 in 10.0 mi SSW 24.2 mph 28.8 mph N/A   Clear
1:35 PM 79.9 °F 51.6 °F 37% 29.77 in 10.0 mi South 21.9 mph - N/A   Clear
1:55 PM 80.8 °F 51.6 °F 36% 29.76 in 10.0 mi South 18.4 mph 24.2 mph N/A   Clear
2:15 PM 81.3 °F 51.1 °F 35% 29.75 in 10.0 mi South 18.4 mph 29.9 mph N/A   Clear
2:35 PM 82.4 °F 49.6 °F 32% 29.73 in 10.0 mi South 25.3 mph 31.1 mph N/A   Clear
2:55 PM 82.6 °F 48.4 °F 30% 29.73 in 10.0 mi South 23.0 mph 27.6 mph N/A   Clear
3:15 PM 82.0 °F 49.5 °F 32% 29.72 in 10.0 mi South 19.6 mph 29.9 mph N/A   Clear
3:35 PM 81.5 °F 49.8 °F 33% 29.71 in 10.0 mi South 21.9 mph 29.9 mph N/A   Clear
3:55 PM 81.3 °F 49.1 °F 32% 29.71 in 7.0 mi South 25.3 mph 29.9 mph N/A   Clear
4:15 PM 80.6 °F 50.0 °F 34% 29.71 in 10.0 mi SSE 24.2 mph 31.1 mph N/A   Clear
4:35 PM 79.7 °F 50.2 °F 36% 29.71 in 10.0 mi South 20.7 mph 31.1 mph N/A   Clear
4:55 PM 78.6 °F 50.7 °F 38% 29.71 in 10.0 mi South 19.6 mph 28.8 mph N/A   Clear
5:15 PM 77.9 °F 51.6 °F 40% 29.71 in 10.0 mi South 18.4 mph 27.6 mph N/A   Clear
5:35 PM 77.2 °F 52.0 °F 41% 29.72 in 10.0 mi South 18.4 mph 28.8 mph N/A   Clear
5:55 PM 76.3 °F 52.7 °F 44% 29.72 in 10.0 mi South 19.6 mph 26.5 mph N/A   Clear
6:15 PM 75.0 °F 54.0 °F 48% 29.73 in 10.0 mi South 13.8 mph 25.3 mph N/A   Clear
6:35 PM 73.9 °F 54.5 °F 51% 29.74 in 10.0 mi South 21.9 mph 26.5 mph N/A   Clear
6:55 PM 73.0 °F 54.7 °F 52% 29.75 in 10.0 mi South 16.1 mph 21.9 mph N/A   Clear
7:15 PM 72.1 °F 55.2 °F 55% 29.75 in 10.0 mi SSE 13.8 mph 24.2 mph N/A   Clear
7:35 PM 71.6 °F 55.8 °F 57% 29.75 in 10.0 mi South 16.1 mph 25.3 mph N/A   Clear
7:55 PM 71.1 °F 56.3 °F 60% 29.75 in 10.0 mi SSE 16.1 mph 20.7 mph N/A   Clear
8:15 PM 70.3 °F 56.5 °F 61% 29.75 in 10.0 mi South 13.8 mph 24.2 mph N/A   Clear
8:35 PM 69.8 °F 56.7 °F 63% 29.75 in 10.0 mi South 17.3 mph 25.3 mph N/A   Clear
9:35 PM 69.6 °F 56.7 °F 63% 29.74 in 10.0 mi South 26.5 mph 31.1 mph N/A   Scattered Clouds
10:15 PM 68.0 °F 57.7 °F 70% 29.76 in 10.0 mi South 19.6 mph 34.5 mph N/A Thunderstorm Clear
10:35 PM 67.5 °F 57.6 °F 70% 29.78 in 10.0 mi South 15.0 mph - N/A   Clear
10:55 PM 66.7 °F 57.4 °F 72% 29.79 in 10.0 mi South 11.5 mph - N/A   Clear
11:15 PM 66.2 °F 57.4 °F 73% 29.81 in 10.0 mi WSW 8.1 mph - N/A   Clear
11:35 PM 66.4 °F 57.2 °F 72% 29.81 in 10.0 mi SW 8.1 mph - N/A   Mostly Cloudy
11:55 PM 66.6 °F 57.2 °F 72% 29.80 in 10.0 mi SW 6.9 mph - N/A   Mostly Cloudy